GFSCGP_sfc_dewp_000.txt.gz
Dewpoint
28 26 21 21 22 23 25 24 25 25 26 28 28 28 28 31 32 28 30 32 35 38 44 47 50 49 49 53 54 55 55 56 57 56 57 57 58 59 60 61 61 61 59 59
25 18 18 22 25 24 23 25 24 25 25 26 26 27 29 31 32 31 32 33 35 43 46 49 50 49 50 53 55 55 55 56 57 56 59 58 58 59 60 60 61 61 60 61
17 23 22 19 21 24 23 22 26 25 27 27 27 27 30 32 35 34 33 35 41 43 45 48 49 49 50 52 55 56 56 57 55 57 59 58 58 58 59 60 60 59 59 61
16 19 21 18 16 23 21 25 25 28 28 25 27 24 26 27 27 28 29 32 40 41 44 47 49 49 50 50 53 55 56 55 55 57 57 56 57 56 57 58 59 59 59 59
16 14 16 15 15 20 23 25 26 27 27 25 23 22 23 27 25 27 30 35 41 40 44 47 49 49 49 52 53 55 54 56 57 56 57 58 56 57 58 57 57 58 59 60
14 18 14 14 17 21 25 27 26 26 26 23 23 24 23 25 26 28 31 37 39 42 45 49 50 50 50 51 53 54 52 54 56 57 57 57 56 57 56 56 57 57 58 60
16 15 15 14 15 18 24 24 23 23 23 24 25 25 26 29 31 28 25 35 41 44 48 50 50 49 50 51 53 53 53 54 55 55 57 56 57 56 55 55 56 55 56 56
14 13 15 16 15 13 13 16 23 19 21 21 24 21 22 27 28 30 32 39 43 45 48 49 50 49 49 50 52 52 52 50 51 55 56 56 58 57 56 57 57 56 56 56
14 15 19 15 14 14 14 17 17 22 26 21 23 25 30 29 30 38 41 42 43 45 48 50 49 48 46 49 51 51 53 51 50 54 56 57 58 57 57 57 57 57 57 58
19 18 18 16 14 14 11 18 18 23 19 19 22 23 25 25 31 40 41 42 44 46 48 49 48 47 46 49 48 48 53 50 52 54 54 57 59 59 58 57 57 57 57 57
17 21 22 16 14 10 11 14 23 23 24 21 19 21 28 24 28 39 39 42 43 45 47 48 47 48 46 47 45 48 52 50 51 53 54 58 59 59 59 59 57 57 57 58
16 19 17 17 21 14 11 13 23 20 20 21 23 21 30 30 34 38 40 41 43 45 47 47 47 48 47 46 46 51 50 50 49 51 51 55 59 59 59 58 58 58 57 58
22 17 22 25 20 23 12 18 23 24 26 22 17 20 31 36 38 39 40 41 43 46 47 46 48 47 47 47 47 48 51 49 49 51 48 57 57 57 59 58 58 58 58 59
34 20 16 17 18 21 19 15 24 23 22 24 20 24 29 38 39 42 42 42 42 45 46 46 46 46 47 47 47 47 50 48 50 48 50 56 56 56 57 58 58 58 59 58
29 23 17 15 20 25 23 16 24 20 22 20 23 25 26 34 40 42 43 42 41 44 44 45 46 44 44 47 48 48 49 46 50 48 52 55 55 56 57 58 57 58 58 58
30 31 22 19 16 16 18 23 23 22 25 25 24 26 30 34 41 42 42 41 40 42 44 45 46 44 44 45 47 48 48 45 49 48 48 54 54 57 56 57 56 57 58 58
29 32 30 20 21 17 16 21 24 23 27 26 22 23 30 32 40 41 41 40 39 40 43 44 45 45 43 43 46 47 48 45 49 48 49 50 49 54 55 56 55 56 54 54
28 28 28 22 21 22 26 27 26 23 25 27 25 25 30 30 34 41 41 39 39 39 42 43 45 45 43 43 45 47 46 45 48 48 49 47 48 54 52 53 54 55 53 53
28 28 30 25 22 25 30 29 26 25 25 28 24 25 24 33 40 41 41 40 39 39 41 43 45 44 42 43 44 46 43 42 47 48 48 46 48 55 54 53 55 54 53 52
29 29 35 33 23 22 30 31 29 28 24 29 28 28 26 40 38 41 41 40 39 40 41 43 44 43 42 43 45 46 41 39 45 47 47 46 47 54 55 52 54 55 53 52
36 37 32 32 28 32 39 41 34 25 29 36 30 30 30 32 38 40 42 42 40 40 41 43 45 42 42 43 45 45 41 37 39 44 47 46 47 51 56 55 56 55 55 54
34 34 34 34 30 32 40 41 38 40 45 44 33 33 33 31 34 36 40 43 44 41 42 45 45 43 42 44 44 45 41 39 38 42 43 46 48 49 57 56 56 56 56 55
34 38 35 36 39 38 42 40 39 37 39 46 47 41 35 35 34 40 38 41 44 42 43 45 44 43 43 44 43 44 45 41 39 42 40 42 48 51 58 56 56 56 56 55
37 39 36 34 40 35 37 37 39 37 35 41 45 46 38 34 34 38 43 43 44 43 44 46 44 43 44 44 43 43 47 43 41 42 41 40 49 55 57 57 56 56 56 56
37 38 36 34 37 36 38 37 38 37 36 35 42 46 44 38 33 39 43 42 44 45 45 46 45 44 45 45 44 44 47 45 42 43 42 43 49 55 57 57 56 55 55 54
39 36 35 34 36 37 36 37 40 38 36 35 36 44 44 46 37 41 43 43 45 46 46 46 47 46 46 46 44 46 46 46 44 45 44 43 50 55 56 55 49 39 45 45

GFSCGP_sfc_dewp_003.txt.gz
Dewpoint
27 27 25 24 22 21 17 19 18 20 25 27 28 29 30 30 31 30 32 32 33 36 39 44 47 46 50 52 53 55 55 56 57 56 55 56 56 57 58 59 61 60 61 59
23 22 28 28 25 22 22 22 23 25 26 27 26 26 27 29 29 30 31 33 33 40 45 47 45 46 50 53 54 54 55 56 56 55 57 57 57 58 58 59 61 61 61 59
15 18 27 29 23 22 22 20 21 22 26 28 27 27 28 28 31 34 34 34 37 40 45 47 45 47 51 53 54 54 54 55 56 56 57 57 57 57 58 58 58 58 59 59
17 16 20 22 20 19 21 24 23 24 26 25 29 25 26 28 28 28 30 31 34 40 45 47 46 47 50 52 54 55 55 55 55 58 56 55 55 54 56 56 57 57 58 59
12 14 15 20 18 19 21 25 26 28 26 26 25 25 25 27 26 27 27 29 33 41 45 47 47 48 50 51 53 55 55 54 56 57 56 57 54 56 56 56 56 56 58 59
8 16 15 16 21 21 20 26 26 25 27 24 24 25 24 25 25 26 28 29 40 41 46 48 48 48 49 51 53 55 53 55 56 56 56 56 55 55 55 55 55 55 56 59
17 13 16 16 19 21 19 24 22 22 24 24 25 25 25 27 29 27 28 31 41 45 49 48 47 48 49 50 53 52 52 54 56 57 57 56 56 56 55 55 55 54 54 57
15 14 15 16 14 15 16 21 24 20 21 22 25 24 24 28 29 31 30 34 43 46 49 48 48 48 49 50 52 53 52 53 54 56 56 55 56 55 54 55 56 54 54 55
15 15 19 15 15 14 15 21 25 21 26 22 24 26 28 28 28 35 38 40 43 46 48 49 49 48 49 50 51 52 51 50 51 55 55 56 56 55 55 55 55 55 55 56
20 15 16 16 16 16 15 19 15 18 16 18 23 23 24 24 30 37 40 40 44 47 49 49 49 48 49 50 51 51 52 50 50 54 55 56 58 56 56 56 56 55 55 56
15 18 19 16 16 13 13 13 18 22 24 22 20 23 27 23 29 36 38 41 44 47 48 49 48 47 47 49 49 50 52 50 52 54 53 57 58 58 56 56 56 56 55 56
29 16 13 17 19 16 14 12 13 15 18 22 23 22 28 26 27 37 39 42 44 47 48 48 47 47 46 47 46 48 51 50 51 52 53 56 58 58 57 56 56 56 56 56
32 23 17 18 18 20 13 11 11 17 24 21 20 21 33 32 28 38 39 42 44 47 48 47 47 47 45 46 45 50 50 49 49 50 51 56 57 57 56 56 56 56 56 57
31 31 18 13 16 18 19 13 12 16 16 17 20 19 29 36 36 38 40 42 44 46 47 47 47 47 46 45 47 50 50 49 49 48 54 55 55 56 56 57 57 57 57 57
29 27 29 17 13 22 22 18 14 15 14 17 18 19 24 36 37 38 40 43 44 46 46 46 47 47 46 46 47 47 50 48 50 47 54 54 54 55 56 57 57 57 57 58
31 25 31 29 15 12 13 22 17 19 19 21 23 22 26 34 41 42 41 42 43 45 46 46 46 46 46 46 47 47 49 47 49 47 53 54 53 54 56 55 56 56 56 57
30 28 24 26 21 16 15 15 20 22 24 22 21 23 31 36 40 42 43 41 42 44 45 45 46 45 45 47 47 48 49 47 48 47 51 52 52 54 55 54 55 56 54 54
28 26 25 26 24 17 19 20 18 25 25 25 24 25 31 35 39 42 43 41 41 43 45 45 46 45 45 45 48 48 47 47 47 46 49 48 49 53 54 53 54 52 52 53
36 28 25 28 24 23 27 37 33 26 25 32 28 26 30 34 39 41 43 42 41 43 45 45 46 46 45 44 47 47 45 47 47 46 47 45 49 51 52 52 54 52 51 50
31 29 27 31 22 18 37 39 41 41 25 42 45 43 33 35 32 37 43 42 41 42 44 44 46 46 44 44 46 47 44 46 46 46 46 45 48 52 51 52 53 52 50 49
32 31 26 27 28 36 37 39 38 25 30 38 43 47 36 33 32 34 42 41 41 41 43 44 46 45 43 43 45 45 42 44 46 46 46 44 46 53 52 53 53 51 50 50
32 32 34 34 30 31 37 37 34 36 37 37 37 44 46 40 36 40 42 41 41 40 42 43 45 44 43 43 44 45 42 42 45 46 46 45 44 52 53 53 53 52 51 49
32 35 35 35 36 38 38 38 38 38 37 36 36 38 45 44 33 40 42 41 40 40 41 43 43 43 43 43 43 44 43 39 42 45 46 45 44 48 55 53 54 54 52 50
36 38 37 34 39 36 34 37 38 39 37 38 38 38 44 45 40 36 42 42 42 40 40 42 43 43 42 43 43 43 43 39 40 42 43 45 45 49 55 54 54 54 54 53
36 38 34 34 38 34 36 34 36 38 38 37 37 38 41 42 47 38 38 42 43 41 41 43 43 42 42 43 43 43 44 40 38 40 41 42 45 49 54 54 54 54 54 53
39 36 34 33 35 33 35 37 35 39 38 38 38 39 40 38 44 48 40 41 43 42 42 44 43 43 43 43 43 43 46 42 40 39 40 41 45 50 53 54 50 40 42 46

GFSCGP_sfc_dewp_006.txt.gz
Dewpoint
22 21 22 20 24 23 20 16 14 19 22 24 25 27 29 31 31 30 30 31 33 35 39 43 46 47 51 52 53 54 55 55 56 56 56 56 57 58 59 60 61 61 61 61
24 18 18 24 25 24 23 18 16 21 26 26 27 26 27 28 29 30 31 30 31 36 43 45 46 47 50 52 53 54 55 55 56 55 57 57 57 58 59 60 61 62 62 61
10 13 19 25 26 24 22 21 20 21 26 28 27 25 27 29 31 31 32 35 35 36 42 45 45 47 50 52 54 55 55 56 56 56 57 57 57 57 58 58 59 59 59 60
12 11 16 25 27 26 24 25 24 25 26 21 28 25 26 28 28 29 28 29 33 37 44 46 45 49 50 52 54 55 55 56 56 57 56 55 56 56 57 57 58 59 59 60
10 12 14 19 24 28 25 25 25 27 26 25 25 24 24 28 27 27 29 29 30 34 45 46 46 49 52 53 54 55 55 55 56 57 56 57 56 56 57 57 58 59 59 60
9 15 13 15 23 24 23 23 25 26 25 21 22 24 23 26 26 27 29 30 37 42 47 47 48 50 51 53 54 55 55 54 56 56 57 57 55 56 56 56 56 57 57 59
16 10 17 16 14 24 22 20 18 20 21 21 23 24 20 27 29 27 27 30 41 46 47 47 47 48 50 52 54 54 54 54 55 56 57 56 57 56 56 56 56 56 56 58
16 15 12 18 15 15 20 20 19 14 20 22 26 24 25 30 30 31 31 32 43 47 47 46 47 48 49 51 53 53 52 54 56 56 57 56 57 56 56 56 57 56 56 57
17 16 18 14 15 15 18 18 21 22 24 22 24 26 27 29 27 28 34 40 43 47 47 47 47 48 50 51 53 52 52 53 54 55 56 56 57 55 56 57 57 56 56 57
19 16 17 15 15 16 16 20 18 19 17 18 21 24 24 26 25 32 37 38 43 48 48 47 48 49 50 52 52 53 52 51 52 55 56 56 57 56 57 57 57 56 57 58
20 17 18 18 16 13 15 16 19 19 22 20 19 22 28 26 26 29 34 38 44 47 48 48 48 49 49 51 51 52 53 51 52 55 55 57 58 57 56 57 57 56 56 57
32 22 16 16 17 16 14 14 20 15 20 21 23 23 29 28 28 30 34 40 44 47 48 48 48 47 48 50 50 50 52 52 52 55 55 57 58 58 57 57 57 57 56 57
31 25 17 17 17 19 14 14 13 19 23 19 17 21 29 34 33 34 36 42 46 47 48 48 47 46 48 48 48 48 51 52 52 53 53 57 57 57 57 56 57 57 57 58
32 27 26 14 14 18 16 14 13 13 14 18 20 22 23 33 31 36 40 43 46 47 47 47 47 46 46 47 47 49 51 51 51 51 55 56 57 57 56 57 57 57 58 58
30 26 28 27 27 22 20 16 14 12 13 13 16 19 22 24 34 38 41 44 46 47 47 47 47 46 46 46 47 50 51 50 51 50 55 55 56 57 57 57 58 58 58 59
31 26 27 26 27 26 20 15 15 13 13 13 21 18 21 31 40 41 41 43 45 46 46 47 47 47 46 46 46 49 51 49 51 49 54 55 56 57 57 57 57 58 58 58
30 27 25 21 25 22 17 16 15 18 15 14 17 15 29 37 39 41 42 43 44 46 46 47 47 47 47 46 47 48 50 50 50 49 54 54 55 56 55 56 57 57 57 57
31 30 26 22 27 16 23 34 19 19 34 35 23 27 29 32 38 40 41 42 43 46 46 47 47 47 48 48 48 49 49 49 49 48 53 53 54 55 55 56 56 55 55 56
35 36 27 25 26 24 37 37 37 37 38 37 41 44 46 42 41 42 43 43 43 46 46 47 47 47 47 48 48 49 48 48 48 47 51 51 53 55 54 55 55 53 54 53
35 33 28 28 25 20 34 35 38 41 32 36 36 37 40 44 34 36 44 44 44 46 47 47 48 47 46 48 49 49 48 48 48 47 49 49 53 54 53 55 54 53 53 53
31 32 25 26 24 34 34 35 37 30 30 37 37 36 37 43 39 44 43 44 44 45 47 48 48 46 47 47 49 48 47 48 48 48 48 48 53 53 54 54 54 53 52 52
32 31 32 31 31 31 38 34 32 35 38 38 37 37 37 38 43 45 43 45 44 44 46 46 47 47 47 46 48 48 47 48 48 48 48 48 50 52 53 54 54 52 52 51
32 35 33 36 35 36 37 36 38 39 38 36 37 38 39 39 42 44 41 44 43 43 44 45 46 47 46 46 47 47 47 47 48 49 49 48 48 54 54 54 53 52 52 50
35 38 36 35 36 36 37 37 35 35 36 38 37 39 40 39 39 45 40 43 43 42 43 45 46 45 45 46 46 47 47 45 47 48 49 48 46 52 55 54 54 52 51 50
34 37 35 35 37 36 34 34 36 36 37 37 38 39 40 41 40 41 47 44 42 42 43 44 45 44 45 46 46 47 46 44 46 47 48 48 47 49 55 54 54 53 54 50
37 35 35 34 38 38 36 36 36 36 37 37 38 40 40 41 43 49 50 42 43 42 43 44 45 45 45 45 45 46 44 43 45 45 45 46 47 48 53 54 51 40 44 46

GFSCGP_sfc_dewp_009.txt.gz
Dewpoint
16 18 19 17 22 23 23 23 23 24 21 19 19 22 28 29 31 31 33 35 38 41 42 43 47 51 53 56 58 60 61 62 60 58 58 59 59 61 62 63 64 64 65 64
17 16 17 19 17 19 21 22 21 21 20 22 22 24 27 29 29 30 35 36 38 40 41 44 48 51 54 56 58 60 60 61 61 59 61 61 62 62 62 64 64 64 64 64
15 14 15 17 17 19 20 18 20 20 21 23 24 23 23 25 32 31 32 35 38 40 43 46 48 51 53 55 57 59 60 61 61 62 61 62 63 62 61 62 63 63 62 62
13 13 13 14 16 20 18 20 20 20 22 16 25 19 25 25 27 28 30 36 38 39 43 47 48 50 53 55 57 59 60 61 61 62 61 62 60 59 61 62 62 63 61 62
14 12 13 14 16 21 19 20 23 23 24 24 22 22 22 26 25 26 29 30 37 39 42 47 48 50 53 55 57 59 61 61 62 62 62 61 62 61 62 62 62 63 63 62
14 14 11 12 17 23 24 23 25 26 24 20 21 23 21 23 24 24 30 33 36 42 47 48 50 52 53 55 57 59 60 61 61 62 62 63 62 61 60 61 61 61 61 63
13 11 13 11 16 22 26 26 18 17 18 17 21 22 23 23 23 27 30 32 39 47 48 48 50 50 53 54 56 57 59 59 61 61 61 62 61 61 60 60 61 61 61 61
15 11 10 13 12 19 25 24 17 18 18 15 25 20 22 29 28 28 32 36 41 48 48 48 49 51 52 55 57 57 58 58 60 60 61 61 62 59 59 60 61 60 60 60
19 16 14 13 12 16 22 21 21 16 25 21 24 28 31 32 32 34 34 37 43 48 49 48 50 51 52 55 57 57 57 58 60 60 61 61 61 60 60 61 62 60 61 61
26 20 17 12 12 13 14 18 19 17 14 13 16 24 24 30 30 32 34 39 44 48 48 48 49 51 53 55 57 58 58 58 59 59 61 60 61 60 61 61 61 61 61 61
29 23 19 14 15 12 16 18 19 21 18 14 11 13 33 33 33 32 34 41 45 47 47 48 49 51 53 55 56 57 56 56 57 58 60 60 60 59 60 60 60 60 61 61
34 31 19 17 16 17 16 18 22 14 21 16 21 17 32 36 34 35 34 41 45 47 47 47 48 50 51 53 54 55 56 55 55 58 58 60 61 60 60 60 60 59 59 60
36 27 20 18 19 19 17 17 21 26 27 21 13 16 30 36 35 35 38 42 46 48 48 48 48 49 50 52 53 52 55 55 54 57 57 61 61 61 61 60 60 60 60 60
36 29 26 14 19 21 18 17 18 22 18 20 19 14 22 24 31 37 41 44 45 47 48 48 48 49 50 51 51 51 53 54 54 55 57 60 61 61 60 59 60 60 60 60
34 28 26 25 25 26 18 15 15 17 18 17 19 19 19 29 29 36 42 45 46 47 47 48 48 49 50 50 51 50 51 53 54 54 57 59 61 60 60 60 60 60 61 61
33 27 28 25 23 23 22 20 17 16 16 17 17 18 22 25 30 38 42 44 45 46 46 47 48 49 49 49 49 50 52 52 54 54 56 58 59 58 60 60 60 60 60 61
31 29 28 22 25 24 20 21 21 18 18 18 16 21 20 23 31 38 44 44 44 46 47 48 49 50 50 49 50 50 53 52 53 52 56 56 58 57 58 59 59 59 61 62
32 33 30 25 27 18 29 36 31 21 35 37 30 29 41 43 43 41 39 44 45 47 48 49 49 51 51 50 50 50 52 52 50 51 55 55 55 56 57 58 59 60 61 61
35 36 32 25 27 31 34 34 35 31 35 37 37 38 38 40 44 40 42 43 46 50 50 50 50 52 52 51 50 50 51 51 50 49 54 54 55 56 57 58 59 59 60 60
38 38 33 28 28 22 34 35 35 41 34 36 38 38 39 40 27 32 44 46 45 49 50 50 51 52 52 52 52 51 50 50 51 49 52 53 55 56 57 59 59 59 60 59
34 35 30 27 29 34 35 35 37 35 32 38 38 39 40 39 41 44 44 47 47 49 50 51 52 52 53 53 53 51 50 50 51 49 50 53 55 57 58 61 59 58 58 58
34 34 32 29 31 31 37 32 33 36 39 38 39 39 40 41 42 43 44 46 47 48 49 50 50 51 53 53 52 51 51 51 51 50 49 52 56 56 56 60 59 57 59 58
33 35 34 35 35 38 38 38 37 38 37 37 38 40 42 42 43 43 43 46 47 48 49 49 49 51 52 52 52 51 52 51 51 51 52 52 54 55 57 58 58 55 57 54
35 37 37 36 37 37 37 36 37 37 36 37 37 39 41 42 43 44 47 48 45 46 48 49 49 50 50 51 51 52 51 50 50 52 53 53 52 55 56 55 56 53 53 52
36 37 37 37 38 36 35 37 37 37 35 34 35 37 40 42 43 44 45 50 48 46 48 49 50 49 49 50 50 51 51 49 50 53 53 53 50 54 56 56 55 53 55 51
38 37 37 36 36 37 35 37 37 36 35 33 34 36 39 42 43 45 48 52 51 45 47 48 49 50 49 49 49 50 49 49 52 52 51 50 48 49 52 55 54 41 45 45

GFSCGP_sfc_dewp_012.txt.gz
Dewpoint
21 16 19 21 24 23 23 24 23 25 25 25 26 26 27 28 27 28 30 31 31 34 37 42 48 50 53 57 59 61 63 66 63 60 56 55 55 58 59 60 64 64 64 64
18 17 18 20 22 22 23 23 24 26 26 27 28 25 27 27 28 29 31 30 31 35 34 41 48 52 55 57 59 61 63 65 62 57 57 55 56 56 58 60 63 64 64 64
17 15 16 16 19 20 21 22 23 22 24 26 26 25 26 26 27 26 27 32 35 34 34 43 49 53 55 57 60 61 63 64 61 61 60 62 62 61 58 60 60 62 63 63
17 15 14 16 17 18 19 19 19 22 23 19 23 19 25 26 26 26 28 30 31 31 38 43 50 53 55 57 59 61 62 63 62 63 60 61 55 53 57 60 61 62 62 61
17 16 15 15 17 18 19 18 19 21 21 23 21 19 21 24 24 27 30 31 33 32 40 44 49 52 55 57 59 61 62 62 63 62 62 59 59 57 59 59 61 62 63 61
18 15 14 15 15 16 17 19 20 21 20 18 20 19 19 21 25 26 27 26 28 39 45 47 50 53 55 56 58 60 61 62 62 62 62 62 62 61 58 59 58 61 65 64
21 17 15 13 14 16 19 23 18 20 20 19 20 18 21 28 28 26 25 30 39 46 48 49 51 51 54 55 56 58 59 60 61 61 61 62 63 62 62 61 59 61 60 64
16 18 16 14 14 16 18 22 14 16 15 14 18 19 21 26 25 29 25 30 37 46 49 50 50 52 52 54 56 55 58 59 59 59 61 62 63 58 58 60 59 59 64 60
19 20 15 13 13 15 20 18 19 15 20 18 17 25 29 29 28 26 31 32 39 46 49 50 51 52 52 54 56 57 57 57 58 59 62 62 62 61 60 61 62 59 63 59
29 25 17 12 12 15 21 21 19 14 18 15 12 21 24 27 25 26 27 35 43 47 48 50 50 51 53 55 56 58 58 56 57 60 61 61 62 62 61 61 60 61 61 59
30 29 22 15 14 12 16 19 19 21 15 16 16 16 24 28 28 30 33 39 45 47 47 48 49 51 53 55 56 58 55 56 57 59 60 60 61 61 61 60 60 60 61 60
33 33 27 16 15 15 16 19 23 15 20 15 14 14 28 31 32 34 33 41 44 46 46 47 48 51 52 53 54 55 54 54 56 57 58 60 61 61 62 60 60 59 60 59
35 30 24 20 17 17 16 15 20 24 25 23 12 17 20 31 34 36 39 41 44 46 46 47 48 49 50 52 52 51 52 52 54 56 57 60 61 62 62 60 61 59 59 58
40 33 28 18 18 19 18 16 17 23 19 18 16 14 19 29 30 34 40 44 44 45 46 47 48 48 50 51 50 48 50 51 53 54 56 58 59 61 61 60 60 59 58 57
35 29 29 25 24 24 19 16 16 20 22 18 16 18 19 24 27 34 37 42 43 44 45 47 48 49 50 50 49 47 50 51 53 53 55 58 61 60 59 59 59 59 59 58
35 30 30 27 23 22 21 16 16 18 20 18 17 19 21 23 25 28 35 41 43 44 45 46 47 49 50 49 47 47 49 50 52 53 54 57 58 58 59 60 59 60 59 59
36 35 29 23 21 21 21 19 17 18 19 20 18 22 22 23 24 29 37 40 41 45 46 47 48 50 50 49 48 48 49 49 51 52 54 56 57 56 58 58 58 59 61 61
33 37 30 19 21 21 30 32 25 21 30 30 28 26 26 35 35 36 38 37 38 44 46 48 48 51 51 49 47 48 49 48 49 51 53 54 53 55 57 57 58 61 61 62
33 37 32 27 24 24 31 34 33 30 34 37 36 36 37 37 38 37 45 46 40 44 48 49 50 52 52 49 48 47 48 46 47 48 53 53 53 56 57 58 61 61 61 62
37 36 35 29 23 23 35 35 35 39 33 39 39 40 41 41 29 34 45 45 48 46 50 50 50 52 52 50 49 48 47 45 46 47 52 53 54 55 56 59 60 62 61 60
36 35 31 30 30 33 36 36 37 34 35 41 41 41 42 41 43 46 46 46 47 49 50 51 52 52 52 51 50 48 47 46 46 46 50 53 55 57 58 60 60 60 59 59
35 34 30 31 30 31 37 35 36 39 41 40 41 41 42 44 45 45 46 46 46 48 49 51 51 52 52 50 50 48 48 46 46 45 48 52 56 55 57 61 60 59 59 60
35 36 36 36 36 39 37 37 39 40 39 39 40 40 42 43 44 45 46 47 47 48 49 50 51 52 51 50 49 48 49 46 45 47 48 51 54 55 57 59 60 56 58 54
38 39 37 37 39 35 36 37 38 38 37 38 38 39 41 43 45 46 47 47 49 46 48 50 50 50 50 50 48 48 49 46 45 48 50 51 52 55 57 55 56 53 53 50
39 39 38 37 38 36 34 38 38 38 37 36 37 38 40 43 44 46 47 49 49 49 48 50 50 50 49 49 48 47 47 46 47 49 50 51 50 53 56 55 54 52 55 49
39 38 37 37 40 38 37 37 37 38 38 37 37 37 39 41 43 45 47 52 52 51 47 49 50 50 48 47 46 46 45 46 48 50 49 47 45 49 50 53 55 42 46 45

GFSCGP_sfc_dewp_015.txt.gz
Dewpoint
27 21 18 19 24 23 23 23 23 24 25 25 26 26 27 28 29 29 31 32 33 33 35 39 40 46 52 55 60 63 66 70 69 66 63 60 57 59 57 59 62 62 63 65
23 21 20 18 19 21 21 21 23 25 25 26 27 26 28 29 30 31 32 32 33 33 34 35 39 53 55 58 61 63 64 69 69 65 64 59 59 56 57 58 62 63 62 63
21 21 19 16 16 18 21 22 24 23 26 27 28 28 28 28 30 30 30 31 32 34 35 37 38 54 56 59 61 62 64 68 68 67 63 62 60 59 58 56 59 63 62 64
19 18 17 16 15 15 19 21 23 24 25 23 26 22 27 27 27 27 29 30 31 33 35 36 38 54 57 58 61 63 65 66 64 67 65 67 59 55 54 58 57 60 61 61
17 18 17 17 16 16 18 20 23 24 23 24 22 21 23 24 24 26 28 28 31 32 34 34 43 53 56 59 61 63 64 63 64 64 66 59 60 55 56 56 60 63 63 62
15 18 17 17 16 15 16 19 22 24 22 20 22 21 21 21 23 24 27 28 30 31 34 39 50 54 56 58 60 62 63 63 63 61 62 63 61 59 57 58 60 64 65 64
13 15 17 17 16 18 18 23 19 21 20 22 21 20 22 25 23 25 27 28 29 38 45 48 51 53 55 57 59 60 61 62 61 61 61 61 62 62 62 60 63 62 61 64
7 8 15 18 16 17 17 22 18 21 19 16 20 19 19 24 26 26 26 28 40 45 47 49 51 53 54 57 58 58 60 60 60 60 60 61 62 58 57 61 59 65 61 62
17 7 8 16 16 15 18 17 21 21 20 18 16 21 24 27 28 26 28 29 40 46 49 50 52 53 54 56 57 58 58 59 59 59 60 61 61 59 63 63 62 60 62 61
29 17 10 15 16 16 17 18 18 20 19 18 17 20 17 25 24 25 30 30 37 46 48 50 51 53 54 55 56 58 59 58 57 59 59 59 60 61 61 61 60 63 62 59
29 36 27 19 19 15 13 15 19 22 18 17 18 16 23 27 26 26 27 32 42 46 47 49 50 52 54 55 56 58 57 56 56 58 58 62 61 60 60 61 59 63 61 62
29 33 33 22 20 16 15 19 23 19 23 16 16 18 28 27 29 35 33 39 44 46 46 47 49 52 52 54 55 56 55 54 55 56 57 61 60 60 62 61 60 60 61 59
36 32 28 32 24 17 16 16 22 26 26 22 14 17 27 30 32 34 35 40 44 45 45 47 49 50 51 53 54 52 52 52 54 54 55 59 59 62 63 61 62 58 57 57
41 34 32 31 23 16 17 16 19 25 22 21 17 19 26 31 32 36 40 43 43 44 46 47 48 49 51 52 51 49 50 51 53 53 54 60 61 62 63 62 61 57 56 55
40 30 28 35 34 26 15 14 16 21 22 19 20 16 23 29 32 35 41 42 42 43 44 47 48 49 51 51 49 48 49 50 53 52 53 61 61 60 58 60 58 57 56 55
38 32 28 28 34 32 15 15 14 16 20 19 17 18 19 22 26 30 36 40 42 42 43 46 47 49 50 49 46 48 49 49 51 52 54 57 56 56 58 58 58 58 59 59
35 37 30 30 33 30 20 19 15 16 20 21 18 21 23 23 29 38 39 39 41 42 44 46 47 49 50 49 47 48 48 50 51 52 54 54 55 55 57 57 57 58 63 64
31 32 33 31 31 25 22 23 18 18 20 22 22 22 29 31 32 34 38 40 37 43 44 47 48 51 51 48 46 48 48 48 49 51 53 53 53 55 56 57 57 60 65 63
29 33 32 32 31 30 28 29 26 20 33 36 30 28 35 36 37 37 44 45 47 46 46 48 49 52 51 48 47 47 47 46 48 50 52 52 54 55 56 59 59 61 65 65
32 35 35 33 28 28 37 33 35 37 34 39 38 39 40 39 31 42 46 45 47 51 47 48 50 52 51 48 48 47 46 46 47 50 51 52 54 55 56 59 61 62 61 60
34 36 32 30 33 36 38 36 35 30 39 41 41 42 42 42 44 47 46 46 47 49 48 50 51 52 52 49 49 47 47 45 47 49 52 53 55 57 59 60 61 61 60 60
35 36 30 31 34 34 38 37 37 42 43 42 42 41 43 44 45 45 46 46 46 47 49 50 50 52 52 49 48 47 48 46 46 48 51 54 56 55 57 60 59 58 60 62
35 37 36 36 35 42 38 39 41 41 40 40 40 41 42 44 45 46 46 47 46 46 48 49 50 53 51 49 48 47 49 46 46 48 53 55 56 56 58 59 58 55 58 57
38 40 38 38 39 36 37 38 39 39 39 39 39 40 42 43 45 46 47 48 47 47 48 49 51 52 51 48 48 48 47 44 45 48 52 54 56 56 57 55 55 51 52 53
38 39 38 38 39 39 37 37 37 39 39 39 39 39 40 42 44 45 46 50 49 49 47 49 50 51 51 48 47 47 47 44 47 49 50 53 53 56 56 55 53 51 54 48
38 38 37 37 39 38 37 37 37 38 39 39 39 39 39 42 43 45 46 48 50 51 48 49 51 52 51 48 46 45 45 45 48 51 49 49 48 53 53 53 54 43 45 45

GFSCGP_sfc_dewp_021.txt.gz
Dewpoint
21 18 20 20 21 25 23 23 23 24 25 26 26 26 27 29 29 28 29 32 34 33 37 40 44 44 46 58 61 63 67 69 69 68 67 66 64 63 63 64 63 64 64 64
22 18 19 23 21 21 22 19 19 22 25 25 25 25 28 28 28 29 29 35 35 37 39 38 39 42 51 55 62 65 69 69 69 67 67 65 62 63 61 62 62 62 62 62
15 21 19 20 21 20 20 18 17 18 24 23 22 22 23 25 28 32 33 33 37 38 38 38 37 42 58 60 64 66 69 68 68 67 67 64 61 61 60 61 63 62 62 64
10 14 21 17 19 20 18 20 19 20 21 18 22 19 22 23 25 27 28 30 32 32 32 36 37 55 59 62 63 64 68 68 68 66 64 61 60 60 60 60 62 63 62 62
9 10 10 14 16 19 19 21 19 20 17 17 18 21 20 28 27 27 29 32 34 35 37 39 42 58 61 62 63 66 67 66 66 64 62 60 58 60 61 62 61 62 61 61
14 13 10 8 8 16 17 21 20 18 17 15 17 19 18 21 24 28 30 30 30 32 36 45 57 59 61 63 65 66 66 64 64 62 62 60 60 60 59 61 61 61 61 61
21 19 12 10 9 8 15 14 16 16 16 15 16 18 20 27 28 26 27 29 37 46 53 55 57 59 61 63 64 64 64 62 62 63 60 62 59 60 59 59 60 60 61 60
15 20 23 22 9 8 8 14 15 15 16 15 17 18 20 24 28 30 29 29 49 52 53 55 57 59 61 62 63 62 61 61 62 60 62 61 60 60 61 60 60 61 60 61
27 21 25 24 23 12 9 9 15 15 19 15 18 19 21 21 23 30 28 32 48 52 54 55 56 58 61 61 61 62 61 61 61 60 62 61 61 61 61 61 60 60 60 59
28 23 22 20 20 24 14 13 16 14 14 16 17 16 19 25 24 26 31 44 49 51 53 54 56 58 60 60 61 61 61 60 61 61 61 60 61 61 60 60 60 60 60 59
25 26 22 22 19 21 19 10 13 16 17 16 17 19 25 24 28 30 35 46 48 50 53 54 56 58 59 59 60 60 60 60 59 61 59 59 59 60 59 60 60 59 59 60
34 33 28 24 25 24 26 27 14 17 15 18 21 21 31 34 34 28 37 46 48 51 52 54 56 56 57 58 59 59 59 59 58 61 60 60 60 60 60 59 60 58 56 56
34 30 26 23 19 25 27 27 15 20 25 16 18 18 22 26 35 41 44 46 48 50 51 53 54 55 56 57 57 58 57 57 58 60 59 60 60 60 60 59 60 58 57 59
37 31 28 26 27 31 32 32 32 31 19 19 22 18 21 28 37 43 45 47 48 49 51 52 52 53 55 56 56 56 55 55 57 58 58 60 60 60 60 59 59 59 58 57
36 32 30 31 30 31 30 29 30 29 29 19 18 22 25 38 41 44 45 46 46 48 50 51 52 53 54 55 54 54 54 54 55 58 59 60 60 61 60 58 57 58 58 56
39 33 33 31 30 30 26 28 29 28 30 28 18 19 34 41 43 45 44 45 46 48 49 50 51 53 53 54 52 52 52 53 57 57 59 61 61 60 59 59 60 56 57 58
27 33 32 29 32 31 25 25 26 27 30 30 16 20 40 42 43 47 45 44 45 47 48 50 51 52 53 51 50 50 52 53 57 57 59 60 60 59 59 58 55 57 58 60
25 28 33 33 33 22 25 37 29 28 31 35 26 38 42 40 45 48 49 46 46 46 47 49 51 52 51 51 50 52 52 52 55 56 57 57 57 57 57 58 58 59 58 58
27 31 32 30 30 32 34 40 39 39 42 43 40 43 49 48 45 46 48 51 49 50 48 49 52 52 50 49 50 50 50 50 51 54 53 55 55 56 58 59 59 59 59 59
32 31 33 33 28 28 37 38 41 42 40 48 43 43 44 45 43 45 47 50 50 49 51 52 52 51 49 49 50 50 49 49 50 53 53 54 55 57 57 59 59 59 60 60
34 34 32 31 31 33 39 39 40 38 41 49 44 44 45 44 45 45 46 48 50 48 50 52 52 50 49 49 50 49 48 49 50 53 54 55 57 59 60 60 59 60 61 61
33 32 33 32 31 29 40 40 40 45 48 49 43 44 45 46 47 47 47 47 48 47 49 52 52 51 51 49 50 50 48 49 51 53 55 58 59 59 60 59 60 61 60 59
33 36 32 35 34 41 43 44 47 49 48 43 43 44 45 46 46 47 48 48 48 51 48 53 52 50 50 48 48 51 48 50 52 53 57 58 57 58 59 59 59 60 60 60
36 39 34 37 39 41 44 44 44 40 39 39 40 42 43 44 46 46 48 48 49 53 54 54 52 49 50 48 49 51 50 49 52 57 56 58 58 58 59 58 59 59 60 60
37 38 37 37 40 40 42 44 43 40 39 38 39 41 43 43 45 45 45 49 46 48 53 55 51 49 50 49 49 52 48 48 54 56 56 56 58 58 58 55 54 56 56 59
36 37 36 36 41 39 39 43 42 38 38 38 39 41 42 43 44 44 45 47 48 50 51 53 54 51 50 49 48 51 48 49 54 57 56 56 58 59 58 52 51 43 43 46

GFSCGP_sfc_dewp_024.txt.gz
Dewpoint
18 16 14 14 19 22 24 24 23 25 25 24 24 25 25 27 30 30 31 32 31 32 35 38 39 42 45 46 49 56 65 65 66 65 66 65 62 62 62 63 64 64 64 64
21 17 15 17 21 22 21 22 23 23 22 25 25 24 25 26 28 29 30 31 31 31 36 39 40 42 44 48 56 59 65 67 67 66 64 64 62 62 61 63 64 64 64 63
16 19 20 19 18 20 21 19 21 21 21 19 20 20 24 25 27 27 30 32 34 36 37 38 39 39 47 54 61 64 67 67 67 66 64 61 61 60 59 62 62 62 62 62
11 12 11 13 18 17 19 22 21 20 20 18 19 16 19 20 21 23 26 27 29 30 36 38 37 41 54 59 64 67 67 67 67 66 62 60 59 58 59 60 61 62 62 62
11 12 11 12 14 20 17 24 21 22 21 19 18 20 16 23 22 23 26 30 32 33 34 35 34 47 58 63 65 67 67 67 65 64 62 60 59 58 59 61 61 61 61 61
13 13 10 9 10 10 12 20 21 21 20 16 17 17 16 17 21 25 27 28 29 30 32 36 52 60 61 64 66 66 66 64 63 62 60 58 59 59 60 60 60 59 59 60
23 21 18 14 13 13 13 14 14 17 17 16 17 16 16 22 23 23 23 25 27 34 48 57 58 60 62 64 65 64 63 62 62 60 59 59 59 59 59 59 59 59 59 59
14 12 22 25 21 10 8 11 16 13 17 16 16 16 19 20 19 19 21 26 46 53 56 57 59 61 63 64 63 62 61 61 60 60 59 59 59 59 59 59 59 59 59 59
25 21 24 21 21 20 18 7 10 13 14 17 19 19 22 19 18 18 20 44 51 54 56 58 60 62 62 62 62 60 60 60 60 60 60 60 61 60 59 59 59 59 59 59
26 22 23 22 21 21 22 21 12 14 12 12 17 18 17 22 20 22 23 46 52 55 56 58 60 61 61 61 61 60 60 59 60 60 60 60 60 60 60 60 59 59 58 59
29 26 22 26 19 17 20 18 14 15 17 13 17 19 22 22 23 27 30 49 52 54 55 58 60 60 60 61 60 60 60 59 60 59 59 60 59 59 59 58 59 59 58 59
33 30 28 23 23 24 24 23 25 18 12 17 19 17 20 23 24 28 46 50 52 53 55 58 59 59 59 60 59 59 59 59 59 58 58 59 59 59 59 59 59 58 57 58
33 27 23 19 23 29 26 31 32 28 20 15 14 17 17 26 25 39 46 50 52 53 56 57 57 58 58 59 59 58 59 58 59 59 58 59 59 59 58 59 59 56 55 56
36 29 27 19 23 28 28 30 30 31 27 17 15 17 17 19 26 45 47 50 51 54 55 55 56 57 58 58 58 57 57 57 59 59 59 59 59 59 58 59 58 57 56 57
37 30 30 31 31 31 32 30 29 28 29 28 24 23 21 21 26 45 48 50 51 53 53 54 55 56 56 57 57 56 55 56 58 57 59 59 60 60 58 58 57 59 58 58
37 29 33 29 30 30 29 30 28 26 28 28 28 29 29 46 45 46 48 49 51 52 52 53 54 55 55 55 55 55 54 54 58 57 59 60 60 59 58 57 56 57 56 57
34 32 30 26 33 29 27 28 27 25 29 30 28 28 30 48 51 49 47 48 50 51 51 52 53 54 55 55 54 53 53 56 57 58 60 60 59 59 58 58 57 55 58 58
26 27 32 27 31 23 29 39 39 27 25 30 40 37 35 43 49 52 53 48 49 50 51 52 53 54 54 53 52 52 55 57 57 58 60 59 57 57 57 55 55 57 57 58
28 29 28 27 25 29 34 38 39 39 40 46 45 43 47 48 48 50 53 52 50 50 50 52 53 53 51 50 50 52 54 56 56 57 58 58 56 56 57 57 57 57 57 57
34 28 29 30 27 24 36 37 39 41 38 47 48 45 47 47 44 48 51 52 49 50 50 52 53 52 50 49 51 50 51 53 54 55 56 56 56 57 58 58 57 57 57 59
33 34 28 28 24 32 37 38 40 37 41 47 49 48 49 46 48 50 52 52 51 48 51 52 51 50 48 50 49 49 49 50 53 54 55 55 56 57 57 58 58 59 59 59
32 31 32 33 30 28 40 40 39 44 47 48 48 49 51 52 49 50 52 52 52 50 52 51 49 48 48 49 48 48 48 49 53 53 54 55 58 58 59 58 59 59 59 58
32 35 32 33 32 38 41 44 45 47 45 47 48 48 49 50 49 50 47 48 50 54 52 51 50 49 48 48 48 47 47 50 53 54 56 57 58 59 58 58 59 58 57 57
36 39 33 35 39 40 43 45 46 47 46 47 46 44 44 44 46 48 46 47 51 54 55 54 51 49 47 48 48 47 47 52 54 55 57 57 58 58 58 59 59 59 58 57
36 38 37 37 39 42 43 44 45 46 46 45 39 40 42 42 43 45 45 46 47 48 53 55 51 52 48 48 49 50 48 53 55 56 57 57 57 57 57 55 56 59 59 58
37 35 35 35 40 40 41 44 45 45 45 42 39 39 41 41 40 42 43 46 49 47 48 53 54 53 52 50 48 51 48 55 55 55 57 57 56 57 56 52 49 43 44 43

GFSCGP_sfc_dewp_027.txt.gz
Dewpoint
18 15 14 17 19 22 21 23 25 25 25 23 23 24 24 26 27 26 27 27 28 31 35 36 37 39 42 44 44 47 56 62 64 64 64 64 64 64 64 65 66 65 65 65
18 15 18 18 19 18 18 19 21 24 25 24 25 25 26 27 27 28 30 31 32 32 33 34 37 40 42 43 46 47 54 63 63 64 64 63 63 62 63 64 65 65 65 64
18 18 18 17 18 18 19 20 20 22 24 23 22 20 20 24 28 28 29 30 32 33 33 33 36 40 41 44 49 53 59 63 65 63 62 61 61 61 61 61 62 63 64 63
14 14 13 13 15 16 14 21 22 23 22 18 20 16 17 17 18 24 24 25 28 31 32 36 35 37 40 43 56 62 64 65 65 64 62 60 60 58 59 61 61 62 63 62
13 13 12 9 11 13 18 20 22 21 21 20 21 19 14 18 17 18 20 23 26 28 31 32 34 35 38 52 62 65 65 65 64 62 61 60 58 58 59 61 60 60 61 62
16 15 13 11 11 13 16 20 19 20 20 18 18 19 16 15 17 20 25 26 27 29 30 32 41 47 58 63 65 65 65 64 63 61 60 59 58 59 60 59 59 59 59 60
22 16 14 13 11 14 14 12 15 16 18 17 19 18 17 22 23 22 23 24 26 27 29 42 54 58 62 64 64 64 64 62 61 60 59 59 58 59 59 59 59 58 58 58
24 19 18 25 17 17 11 11 14 12 15 15 17 17 18 21 22 20 20 21 26 35 51 56 58 60 62 63 62 63 62 60 60 59 59 59 59 59 59 59 59 58 58 59
25 20 25 22 22 21 20 8 10 7 15 13 18 20 22 21 17 21 21 21 30 45 55 57 60 61 62 61 60 62 60 59 59 58 59 59 59 59 58 58 58 58 58 59
26 21 24 22 22 21 19 20 9 11 10 11 16 17 18 22 18 24 23 24 38 54 57 59 60 60 61 60 60 60 59 59 59 59 59 59 59 59 59 59 58 58 58 58
28 25 23 24 20 14 19 21 18 11 14 14 14 18 23 21 21 22 23 26 49 55 57 59 60 60 60 60 60 58 59 59 59 59 59 59 59 59 59 58 58 58 57 58
33 29 27 24 23 23 23 22 23 16 11 16 17 15 18 20 20 23 35 40 54 56 58 59 59 60 60 59 59 58 59 58 58 59 59 58 58 58 57 58 58 58 57 58
33 27 22 18 26 29 25 27 26 30 26 22 13 14 18 20 22 33 43 51 54 56 58 58 59 59 59 58 58 58 58 58 58 58 58 58 58 57 57 58 58 56 56 57
35 28 24 19 21 27 27 27 31 30 26 22 18 17 16 19 29 27 49 52 52 56 57 58 58 59 59 58 58 58 58 58 58 58 58 58 57 57 57 58 57 55 55 56
34 28 29 28 28 30 29 29 30 29 29 27 26 26 21 29 28 29 47 51 54 56 56 57 57 58 58 58 58 58 57 58 59 58 58 58 59 58 58 58 56 56 56 57
37 28 31 27 28 26 32 30 30 29 28 28 28 27 28 29 44 47 47 51 54 54 55 56 57 57 57 57 57 57 56 56 58 58 59 59 60 58 57 57 56 56 56 57
33 30 27 22 23 28 26 28 29 29 27 27 26 27 28 33 38 49 49 52 53 54 54 55 56 56 56 56 56 55 55 56 58 59 59 60 59 58 58 57 56 54 57 58
29 31 30 25 27 19 29 39 37 32 26 28 29 28 40 39 40 52 53 50 52 53 53 54 55 56 56 56 55 54 54 56 57 58 59 59 58 57 57 56 55 56 58 60
33 29 27 24 25 28 31 37 37 37 35 44 44 47 47 46 49 50 54 54 53 52 53 54 55 55 55 54 53 53 55 56 57 59 59 58 57 56 56 54 55 55 55 56
36 30 28 28 24 24 36 38 38 40 33 45 45 46 47 47 44 47 55 55 54 51 52 53 54 55 54 53 52 53 55 56 56 58 58 57 56 55 56 56 56 56 56 56
33 30 27 26 26 31 37 38 39 34 35 45 47 46 47 45 47 49 54 55 55 51 52 53 54 53 53 51 52 52 54 55 56 57 57 56 56 56 57 57 56 57 57 58
32 30 31 30 29 27 38 36 38 42 45 46 46 47 48 49 49 51 53 54 54 50 52 53 53 52 50 51 51 50 52 53 55 56 56 55 56 56 57 57 57 58 57 57
31 33 31 32 32 36 38 39 40 47 45 46 47 47 49 47 48 49 50 52 53 55 52 52 51 49 49 50 50 49 50 51 54 54 54 55 57 57 58 57 57 57 56 56
36 38 33 34 37 37 41 45 45 47 47 48 47 49 47 46 46 46 47 47 49 55 54 51 49 48 48 49 48 49 49 52 53 54 55 57 57 57 57 58 58 57 56 56
37 39 36 35 39 40 42 45 45 46 48 47 48 45 44 44 44 46 48 48 48 50 54 52 49 49 48 49 48 48 50 54 54 55 56 57 57 57 57 56 56 58 57 57
37 36 36 35 39 41 42 45 47 46 46 46 46 44 44 45 45 45 48 49 49 49 52 54 54 52 51 49 48 48 51 54 55 55 56 56 57 57 56 54 52 43 44 45

GFSCGP_sfc_dewp_030.txt.gz
Dewpoint
20 15 14 18 21 23 20 21 24 25 26 24 24 24 25 26 27 26 27 28 29 30 31 36 39 41 42 44 46 47 50 60 64 64 63 62 63 64 64 65 65 65 65 65
18 15 17 19 19 20 19 19 19 23 24 24 24 23 25 26 27 27 28 28 30 31 34 36 37 39 41 42 45 47 50 60 64 64 63 64 64 64 64 65 66 66 65 65
17 17 19 17 16 17 19 18 19 21 23 22 23 22 23 24 24 24 25 28 29 31 34 34 35 37 38 42 45 47 51 59 63 63 62 62 62 62 62 63 64 65 65 65
17 17 14 15 16 16 15 21 22 24 22 19 22 18 20 21 22 22 24 25 28 32 33 34 35 36 37 38 44 50 56 62 63 63 62 62 61 60 61 62 63 64 64 64
16 12 11 11 11 15 16 18 18 19 19 20 20 19 16 18 17 19 20 20 21 25 29 30 30 32 36 40 48 58 62 64 63 63 62 62 60 59 61 62 62 62 62 63
23 18 13 12 12 13 15 19 20 21 21 17 17 18 15 14 14 18 20 22 23 24 28 31 34 43 51 60 63 64 63 62 63 62 61 60 59 60 61 60 60 61 61 61
27 20 18 15 13 15 13 16 15 16 17 13 17 17 14 19 22 23 22 24 27 29 30 30 36 56 60 62 62 64 63 61 61 61 60 60 60 60 60 60 60 60 59 60
27 18 21 22 14 12 12 11 15 13 14 10 18 17 17 21 21 22 24 23 24 25 27 40 55 59 61 62 63 62 61 60 60 60 60 60 60 60 60 60 60 60 60 60
27 25 29 31 28 21 16 10 12 7 13 11 17 19 21 19 20 22 21 23 24 25 31 54 59 61 62 62 62 61 60 59 59 59 59 59 59 60 59 59 60 59 60 60
27 21 26 28 30 24 18 17 8 9 6 10 14 15 16 19 24 23 23 24 26 36 55 57 59 60 60 60 60 59 59 59 59 59 59 59 59 59 59 60 59 59 60 60
29 26 21 24 20 14 19 19 19 11 14 13 13 16 22 18 19 21 25 31 43 48 56 58 59 60 59 59 59 59 58 58 59 59 59 59 59 59 59 59 59 59 59 59
32 29 26 23 24 26 23 22 22 16 13 12 15 13 19 21 24 26 29 50 53 55 57 58 59 60 59 58 58 58 58 58 59 59 59 59 59 58 58 59 59 58 58 59
31 26 21 18 26 28 26 28 24 27 27 20 13 11 19 19 26 27 29 51 54 56 56 58 59 59 58 58 58 58 58 58 59 59 58 58 58 58 58 58 59 58 58 59
35 27 23 17 20 27 26 28 28 29 26 19 16 19 18 19 28 26 33 48 54 56 57 58 59 58 58 58 58 58 58 58 58 58 58 57 58 58 58 58 58 57 57 57
31 28 28 28 28 28 28 29 29 27 28 28 26 27 26 28 28 26 38 45 55 56 58 58 58 58 58 58 58 58 58 58 58 58 58 57 58 58 58 58 57 57 57 58
34 28 28 25 27 28 28 26 28 29 29 28 29 28 28 28 29 32 40 49 55 56 57 58 58 58 58 58 57 57 58 58 58 58 58 59 59 58 58 58 57 57 58 59
33 31 27 22 24 25 21 21 24 24 29 28 28 26 27 30 33 37 46 50 54 56 57 57 58 58 58 57 58 57 57 58 58 59 59 60 59 58 58 57 57 56 58 60
34 31 28 23 22 13 19 32 34 29 29 30 28 27 28 36 42 47 49 51 54 55 56 57 57 58 58 57 57 57 56 57 58 59 59 59 58 57 57 57 56 58 60 60
35 30 27 21 21 24 25 35 37 36 33 36 31 28 32 46 48 49 53 54 54 55 56 56 57 57 57 56 56 56 55 57 58 59 59 58 58 57 57 56 56 57 58 58
34 31 28 27 22 20 33 38 38 39 32 44 45 44 45 47 44 47 53 54 54 55 55 56 56 56 56 56 55 55 55 56 58 59 58 58 57 56 56 56 56 58 58 58
32 31 27 26 25 27 37 37 37 33 33 45 45 44 46 45 47 49 54 55 56 56 54 55 56 56 56 54 55 55 56 56 57 59 58 57 56 56 57 57 58 58 58 59
31 30 28 29 26 24 37 35 35 41 45 45 46 47 46 47 49 51 53 55 55 55 54 55 55 55 54 53 54 54 55 56 57 59 57 57 56 57 57 58 58 59 59 58
30 32 30 32 31 37 37 37 39 40 41 47 47 48 48 47 47 49 51 54 55 55 55 54 54 53 52 53 54 53 55 56 56 57 57 56 57 58 58 58 58 58 58 58
36 37 32 33 36 37 39 40 46 47 47 48 47 48 47 46 48 49 49 48 50 55 55 54 53 51 51 52 52 53 52 55 56 56 56 57 57 57 58 58 58 58 58 57
37 38 36 35 38 39 39 43 45 46 47 46 46 47 47 46 47 49 49 49 50 51 55 54 52 51 51 51 51 51 52 55 55 56 56 57 57 58 58 57 57 58 58 57
37 36 35 35 41 40 41 44 46 43 46 46 46 46 45 47 47 49 49 50 52 53 54 54 54 53 51 50 50 50 53 55 55 56 56 57 57 57 57 56 52 42 46 48

GFSCGP_sfc_dewp_033.txt.gz
Dewpoint
21 17 14 16 23 24 21 21 20 22 24 23 24 25 26 28 29 30 31 33 34 36 36 40 45 47 50 57 59 62 58 60 60 63 63 64 63 65 65 65 67 67 67 67
20 15 16 18 18 21 22 21 21 22 24 25 26 26 27 28 29 30 31 32 33 34 35 39 43 48 52 55 57 60 58 59 63 63 65 65 65 65 65 66 68 68 67 67
19 17 16 18 17 18 20 21 21 21 23 24 24 24 26 27 28 29 29 31 32 34 37 41 42 47 51 53 56 57 58 60 64 66 66 66 66 65 65 66 66 67 67 67
17 18 16 15 14 17 18 19 21 22 22 20 23 17 23 25 26 28 28 30 31 32 34 38 41 45 50 51 50 52 57 60 64 68 66 67 64 63 64 65 66 66 67 67
21 17 13 13 12 14 17 19 18 18 18 20 20 19 20 21 21 23 27 28 30 31 33 32 34 40 45 47 49 54 59 63 64 67 67 66 66 65 65 65 67 67 68 67
26 25 21 17 14 13 13 16 18 19 18 15 18 18 16 15 19 20 22 22 25 27 30 33 36 40 43 50 59 62 63 65 66 66 67 67 67 66 65 66 65 66 65 66
26 26 25 23 15 15 14 15 11 12 14 14 15 16 18 20 21 21 23 24 27 31 35 37 37 37 48 58 62 63 64 65 66 66 66 66 67 67 67 66 64 65 64 64
29 24 21 23 19 13 14 15 10 4 6 9 14 15 15 22 22 26 24 28 31 33 34 36 36 51 57 62 63 64 65 65 66 65 65 66 67 65 65 65 66 63 62 64
29 21 26 28 26 18 14 13 15 13 14 8 10 14 16 18 19 21 23 30 36 39 42 39 52 59 61 63 64 65 65 65 65 64 64 65 65 65 64 66 66 63 65 64
28 26 25 28 27 26 23 17 12 11 6 5 9 11 10 18 16 23 28 35 41 52 47 54 58 61 62 64 65 65 65 64 64 64 64 63 64 64 64 65 64 64 65 64
29 27 21 23 24 29 25 24 17 15 12 9 9 12 24 24 25 26 26 36 48 54 53 57 59 62 63 64 64 64 63 63 63 63 63 63 63 63 64 64 64 64 64 64
31 31 24 19 22 25 24 22 24 18 12 11 11 12 23 28 26 29 26 29 43 56 56 58 60 62 62 63 62 63 63 62 61 62 62 63 63 63 63 63 63 63 63 61
32 28 20 15 25 27 23 23 26 28 25 19 12 11 23 23 23 29 28 26 34 55 57 59 60 61 62 61 61 60 60 60 60 60 61 62 62 63 63 63 63 62 61 61
35 29 23 20 19 25 23 24 25 26 23 19 17 18 19 22 26 29 28 32 36 54 57 58 59 60 61 61 59 58 59 59 59 59 59 61 62 62 62 62 61 61 61 60
33 28 26 27 27 26 25 24 24 23 23 23 21 20 22 27 31 28 31 32 32 49 57 58 59 60 61 60 59 58 58 59 59 57 58 60 61 61 61 61 60 60 60 59
37 31 29 25 24 23 21 21 22 23 24 24 25 24 28 31 31 28 28 27 32 45 55 57 59 59 60 59 58 59 58 58 58 57 58 59 60 60 61 61 60 59 59 61
35 33 29 22 21 22 20 20 22 21 23 24 21 23 25 29 30 31 36 40 40 46 55 58 59 60 60 59 59 58 58 58 58 57 58 59 59 59 59 58 59 59 61 62
35 32 30 24 27 17 15 29 29 30 32 32 28 26 26 27 28 34 38 41 44 52 56 59 60 60 60 59 59 59 58 57 57 57 57 58 58 58 58 58 58 61 62 63
35 34 28 23 22 21 23 35 35 34 32 34 29 28 29 30 32 40 40 46 53 55 57 59 60 60 60 59 59 58 57 57 57 57 58 58 58 58 58 58 60 62 63 61
36 34 29 25 21 19 31 37 38 38 32 36 34 32 32 32 39 37 48 54 55 57 58 59 59 60 60 60 59 58 56 56 56 58 58 58 57 57 57 59 60 62 63 62
32 32 27 25 26 29 36 37 38 31 34 43 43 44 45 43 45 49 53 55 57 58 58 59 59 59 60 59 59 58 57 56 57 58 58 57 57 58 59 60 61 62 62 61
32 31 30 30 27 25 37 35 34 38 39 40 42 46 46 48 48 50 51 55 56 56 57 58 58 59 60 59 58 57 57 57 57 59 58 57 59 56 58 60 61 62 63 62
32 33 31 32 33 37 38 35 37 38 37 39 42 48 49 50 49 50 52 54 55 55 56 56 57 58 58 58 58 56 58 58 57 59 58 58 58 58 59 60 62 61 62 60
36 37 32 33 37 38 40 41 44 47 45 47 47 47 47 48 49 50 50 53 55 57 56 56 57 56 57 57 57 57 57 56 57 59 59 59 58 58 60 59 60 61 61 59
37 38 36 35 38 39 40 41 45 45 46 45 46 45 46 49 50 50 51 52 54 55 57 57 56 56 56 57 56 57 56 56 58 59 59 59 58 59 59 59 59 61 61 59
36 37 35 35 40 40 40 44 44 44 45 45 44 44 44 46 49 52 52 54 55 55 56 57 57 56 56 55 56 55 55 56 58 58 57 57 57 58 58 58 57 42 46 45

GFSCGP_sfc_dewp_036.txt.gz
Dewpoint
21 17 12 12 12 10 13 16 16 18 18 19 22 23 25 27 29 30 32 34 35 36 37 38 40 43 45 51 59 62 64 68 62 57 59 61 61 63 64 64 67 67 68 68
18 17 17 14 12 14 14 17 19 21 23 22 22 23 25 26 27 29 31 32 33 34 35 36 39 42 46 53 59 62 64 65 64 59 64 62 63 62 64 65 68 68 68 68
16 14 15 15 14 14 15 15 18 19 21 25 25 25 26 26 28 29 30 32 33 34 35 37 38 42 44 49 57 58 62 63 65 66 65 67 66 66 65 66 66 67 68 68
17 14 14 16 16 13 13 13 14 17 20 18 25 19 24 25 25 27 28 30 31 32 33 34 37 40 44 45 48 53 59 61 62 68 68 70 64 63 63 66 66 67 68 67
18 17 18 16 15 13 13 14 14 18 19 20 19 17 20 23 23 25 28 29 30 31 32 32 33 35 38 42 46 54 57 59 63 67 68 66 66 64 65 65 66 68 68 68
21 23 24 22 18 15 16 15 14 19 22 18 19 18 17 19 21 22 24 24 26 26 27 29 31 36 38 41 44 51 59 63 65 67 68 69 68 67 65 67 66 67 67 67
21 22 23 25 20 18 15 14 10 10 14 16 18 16 19 23 19 19 22 23 26 28 31 34 34 34 39 44 49 57 62 64 66 66 67 68 69 69 69 68 66 67 66 66
26 19 29 24 21 17 17 15 8 7 8 8 14 15 15 20 22 22 22 26 28 31 33 37 41 40 35 44 56 61 62 64 66 66 68 69 70 67 67 68 66 65 64 64
26 23 25 26 29 22 20 20 17 12 11 12 6 15 19 20 20 23 23 31 36 42 46 47 46 44 50 58 63 64 64 65 66 67 68 69 69 69 67 69 68 64 66 65
26 25 21 29 29 24 23 20 27 14 14 8 6 10 12 18 18 18 23 32 37 49 51 50 51 53 60 64 65 66 66 66 67 67 68 67 68 68 68 67 65 65 66 65
24 26 22 19 20 20 24 26 28 26 12 5 5 7 17 19 23 26 27 30 32 47 54 56 57 61 64 64 65 66 66 66 66 66 66 67 66 66 65 65 65 66 66 66
25 29 21 18 18 21 28 31 32 31 19 12 16 16 26 29 27 30 29 29 31 48 57 58 61 62 62 63 64 64 65 65 65 65 65 65 64 64 65 65 65 65 64 62
30 25 19 14 23 25 21 20 24 26 29 28 10 15 27 24 24 28 30 29 30 40 57 59 61 61 61 62 62 63 63 63 63 63 63 64 64 65 65 64 65 63 62 60
35 30 24 21 18 19 19 20 21 22 21 18 16 17 21 24 23 26 32 30 28 31 56 58 60 61 60 61 61 61 61 60 60 60 61 62 63 64 63 63 63 61 60 59
35 31 26 23 21 21 20 19 19 19 19 17 17 19 19 22 25 28 32 28 26 29 46 58 59 61 60 59 59 59 58 58 58 57 58 60 61 62 61 61 60 60 60 59
37 33 30 26 23 21 19 18 15 16 18 20 19 18 20 23 23 25 26 26 26 31 37 57 59 60 60 59 58 58 57 56 54 54 56 59 60 60 60 61 60 60 59 58
36 33 30 25 23 22 19 17 15 15 16 18 16 18 20 21 23 25 26 28 30 32 38 57 59 60 61 58 58 58 56 53 54 55 56 57 59 59 59 58 58 58 60 62
35 34 33 27 29 19 16 20 23 24 24 23 21 23 25 24 21 23 23 28 31 34 42 58 60 60 61 59 58 57 53 53 53 54 55 56 56 57 57 57 57 60 61 62
37 34 29 25 23 21 20 26 32 35 32 31 29 28 29 27 26 27 27 31 37 41 51 58 61 60 60 59 58 54 52 53 52 53 55 55 55 56 56 56 59 60 61 62
37 35 32 26 25 23 32 38 37 37 30 35 34 33 32 28 23 22 36 52 53 55 56 59 60 59 59 59 57 53 53 53 53 54 55 55 55 55 56 58 59 60 59 59
33 33 30 27 28 29 32 37 39 32 33 42 42 42 44 34 30 35 43 47 54 58 58 59 59 58 59 58 57 52 54 53 53 55 55 56 55 56 57 59 60 61 60 59
33 32 33 32 30 27 38 36 34 37 40 40 40 41 43 44 43 43 46 51 53 58 58 57 57 58 58 58 54 52 55 54 55 55 55 56 57 54 56 60 61 61 63 62
33 34 33 33 34 39 41 38 38 38 37 40 41 42 45 48 45 47 50 52 55 57 57 56 56 57 57 55 52 54 55 55 55 56 56 57 56 56 58 61 61 62 64 64
36 37 33 34 38 39 41 42 42 45 44 43 43 45 48 47 48 50 52 52 54 57 57 55 54 53 53 52 52 55 55 55 55 57 57 57 57 57 58 58 62 64 63 61
37 39 36 37 39 40 40 43 43 45 45 45 46 45 47 49 50 51 51 53 53 56 57 55 52 50 51 51 53 54 55 55 56 59 57 57 56 58 58 61 61 63 64 57
37 38 37 37 40 41 40 43 42 43 44 44 44 44 45 48 50 52 53 54 54 56 58 56 54 52 49 48 52 53 53 55 57 59 55 52 53 55 55 57 58 44 44 43

GFSCGP_sfc_dewp_042.txt.gz
Dewpoint
16 14 14 16 18 14 13 10 9 9 7 8 11 15 17 20 22 24 29 33 35 36 39 44 44 52 51 63 68 68 68 69 71 70 66 64 64 65 67 68 71 72 71 70
13 12 13 12 12 14 15 14 12 12 11 13 15 14 18 21 21 25 30 31 33 37 40 41 45 53 61 64 66 67 69 71 70 67 67 68 66 62 64 69 71 72 71 70
13 12 12 11 12 11 13 14 14 11 12 12 14 16 20 19 24 26 28 30 33 35 37 41 46 53 59 61 64 66 67 68 69 67 67 69 68 71 71 70 70 71 71 71
14 12 8 10 11 10 9 9 9 12 13 9 13 10 20 20 23 26 27 29 31 34 35 36 41 48 56 58 60 66 67 67 67 70 68 67 64 64 68 70 70 71 71 70
12 12 12 14 11 12 13 14 14 13 12 13 11 10 13 17 19 23 29 29 31 34 35 34 35 42 49 52 55 60 66 67 67 68 68 65 68 67 71 71 72 70 71 70
13 15 16 20 22 24 24 22 19 16 15 10 10 10 11 13 17 19 25 28 29 30 32 35 39 41 42 45 49 59 62 63 67 67 70 70 70 69 68 70 69 68 69 69
11 15 21 28 25 21 26 22 19 12 12 9 11 10 14 18 15 17 21 25 27 31 35 37 37 37 41 42 43 46 60 63 67 67 69 68 71 70 73 70 68 68 67 67
16 14 21 26 23 21 23 33 27 12 8 5 9 10 13 19 21 23 24 28 29 33 32 35 38 42 37 44 49 53 58 63 66 66 66 69 69 70 70 68 67 67 66 67
16 16 15 14 17 23 22 15 30 26 22 21 10 9 10 16 19 20 24 27 31 32 33 37 39 41 42 46 55 56 58 61 63 66 68 70 70 71 70 69 69 68 68 68
19 19 17 14 17 30 27 20 22 29 23 12 12 9 8 14 19 19 23 28 30 34 35 40 45 50 53 57 56 58 61 64 67 68 69 70 71 71 71 71 70 69 70 69
23 21 22 26 18 15 20 21 24 29 26 17 14 12 22 34 37 37 30 28 34 33 33 41 50 52 53 60 63 66 64 66 67 67 68 70 70 71 71 70 69 69 69 68
28 30 24 19 18 16 17 18 29 17 21 22 19 19 32 36 38 37 38 38 33 36 51 51 53 60 57 58 62 65 66 65 66 68 70 70 69 69 68 67 67 68 67 66
37 28 25 19 16 27 28 29 25 28 32 26 23 21 28 39 39 39 43 39 34 34 55 54 55 57 59 60 61 63 65 67 67 68 68 68 67 66 66 66 67 66 66 66
38 34 29 23 20 31 32 29 27 26 27 24 23 25 29 36 37 39 41 44 30 32 53 56 60 61 61 60 62 63 65 65 66 65 66 65 66 67 66 66 66 65 64 63
39 32 29 26 23 21 24 27 23 21 19 18 13 14 22 34 35 36 37 39 27 28 49 56 61 62 62 61 61 62 64 64 64 64 64 65 66 66 65 65 64 63 63 60
39 35 31 27 23 20 18 15 15 13 10 10 10 11 16 22 31 32 33 25 25 26 35 55 57 60 61 60 61 61 60 61 62 62 62 63 63 63 63 64 60 60 62 62
37 35 31 26 22 28 23 17 21 17 14 11 6 16 21 16 19 26 25 26 25 26 28 52 56 61 62 60 59 59 59 59 60 59 58 58 59 58 60 61 61 62 63 64
36 33 32 29 28 20 23 28 31 30 28 29 27 28 28 28 25 19 20 25 26 26 29 48 59 62 63 61 59 57 57 56 55 55 54 56 57 59 60 61 62 62 64 65
38 36 32 27 25 27 27 35 34 32 32 31 34 36 31 29 29 31 31 29 31 33 52 55 61 62 63 61 56 55 54 54 52 52 56 57 58 59 59 61 62 63 64 64
37 37 35 30 27 24 34 38 38 37 29 38 38 38 39 39 26 28 42 45 41 49 53 57 60 62 62 59 55 55 53 52 52 53 55 57 57 58 60 62 62 63 64 64
37 35 31 31 30 30 38 38 39 31 31 39 38 37 38 39 41 44 43 45 45 51 56 58 60 60 61 61 56 54 53 52 55 55 54 56 57 59 62 62 63 64 63 62
35 32 31 34 30 28 39 38 34 38 39 39 39 39 39 40 41 42 43 46 50 53 57 59 59 61 61 57 55 54 57 56 56 55 53 57 59 54 60 62 62 63 64 63
35 37 35 35 35 39 42 41 42 43 40 39 41 44 42 41 41 44 45 50 52 56 59 61 59 59 59 54 55 58 58 57 56 57 58 57 59 56 61 61 62 64 64 63
35 41 35 38 36 40 41 42 43 42 41 43 45 46 43 45 46 46 48 53 57 59 59 62 59 57 54 54 57 58 57 56 56 58 58 60 59 60 61 60 65 63 63 63
38 41 38 37 38 40 40 41 43 41 43 44 44 44 45 45 46 47 50 55 58 59 61 61 59 54 53 53 57 57 57 56 56 57 58 59 59 61 62 58 57 61 55 57
38 39 37 37 39 38 38 43 42 41 42 44 44 44 45 46 47 50 53 57 58 60 61 61 56 53 50 50 55 56 55 57 57 57 56 56 58 60 61 59 57 43 43 41

GFSCGP_sfc_dewp_045.txt.gz
Dewpoint
16 14 13 14 15 16 13 14 15 16 15 13 12 12 13 14 15 18 21 21 25 32 33 34 38 44 51 56 61 59 59 63 68 68 68 67 66 65 66 66 66 68 70 68
15 13 14 12 12 12 13 12 12 15 17 14 14 13 14 14 16 18 22 23 23 34 35 34 33 35 44 52 60 60 58 60 65 65 63 61 61 62 61 64 66 67 69 69
14 14 14 11 9 9 10 11 11 11 14 14 14 13 13 14 16 17 20 27 30 30 32 33 38 42 45 55 61 60 59 59 60 61 63 63 63 62 64 65 63 68 69 69
14 14 12 11 11 12 9 15 15 17 14 9 16 11 13 13 13 17 17 23 27 28 33 31 33 40 47 55 59 59 61 62 63 62 61 61 58 58 57 64 67 69 69 69
14 14 12 12 19 23 21 23 22 22 20 17 14 12 11 16 13 13 16 15 20 28 32 36 33 34 39 52 54 59 62 61 59 61 60 61 61 62 63 67 67 68 68 69
14 13 20 23 25 27 29 25 23 23 19 17 16 14 13 12 11 13 15 18 17 19 28 32 34 31 37 40 47 49 59 60 59 60 64 62 63 63 65 68 67 67 67 68
12 12 15 28 27 28 24 27 25 19 15 14 15 15 13 13 14 17 19 19 19 18 31 31 28 35 33 38 41 44 54 57 62 61 64 63 63 64 65 68 67 66 66 65
18 16 16 28 27 21 21 29 24 18 19 23 23 16 13 18 14 29 28 24 24 24 23 30 34 31 34 35 36 40 41 54 61 62 66 66 64 69 68 68 67 66 66 66
21 20 20 18 17 18 18 27 31 30 28 25 20 18 21 29 36 36 35 36 36 40 31 27 30 38 38 36 37 38 39 49 63 62 65 67 65 68 68 67 67 66 66 66
25 22 22 20 24 24 23 26 26 30 22 16 16 15 21 32 34 34 34 35 40 43 40 29 32 34 37 37 45 47 53 60 62 63 63 66 68 69 67 67 66 66 66 66
29 27 25 25 22 20 20 30 33 32 27 19 17 20 36 35 34 34 35 34 39 44 42 44 39 50 53 50 52 53 59 62 64 66 67 68 69 69 68 67 67 67 67 67
35 31 25 24 25 24 23 28 31 28 27 28 25 22 36 35 34 36 35 37 40 42 44 46 49 56 60 60 61 61 64 65 65 66 67 68 69 69 69 68 68 68 67 67
37 31 26 21 21 32 30 28 28 29 30 25 23 23 30 37 36 35 38 39 43 42 42 44 54 54 59 59 63 65 64 65 66 67 68 68 67 67 67 67 66 66 65 64
38 34 29 24 24 28 28 28 27 27 25 24 24 24 28 35 35 36 38 41 41 38 39 45 48 55 59 60 64 65 65 67 67 68 67 65 66 66 66 65 64 63 63 61
39 33 32 32 31 29 25 24 23 24 25 24 21 20 21 35 36 36 37 39 39 35 33 37 51 57 61 62 64 65 65 66 66 65 65 65 65 65 65 64 62 61 59 58
40 33 35 31 30 28 24 25 26 24 21 27 25 25 29 33 33 33 33 29 27 30 30 36 56 58 61 61 64 65 64 64 65 64 64 64 63 63 63 61 60 59 60 60
33 34 30 25 27 27 21 25 29 29 31 31 28 31 31 32 30 29 29 29 25 22 26 39 55 58 59 61 63 63 63 63 63 63 62 62 62 61 60 56 59 59 59 59
34 34 32 28 29 21 23 35 32 32 29 33 31 32 36 37 38 39 33 37 35 30 48 54 57 60 61 62 62 62 61 61 60 59 58 57 58 58 56 60 58 60 59 61
38 35 30 25 24 27 26 37 35 34 31 36 36 36 36 37 38 38 42 43 44 48 50 51 58 57 56 60 60 57 57 56 55 55 56 57 58 57 59 59 59 60 60 59
39 38 34 29 24 18 33 37 38 37 29 38 37 36 36 36 35 38 40 41 43 45 53 55 58 61 59 61 57 56 53 53 53 56 57 57 57 58 59 60 60 60 60 61
34 34 29 30 28 29 37 38 38 27 31 38 37 37 36 36 37 38 40 41 44 45 52 57 58 60 62 58 54 52 52 53 56 57 57 57 57 59 59 60 59 59 59 61
32 30 30 32 29 21 39 38 34 38 39 38 38 39 39 40 40 41 40 41 46 50 54 57 58 60 61 57 52 53 53 54 55 55 56 57 58 59 59 59 60 60 60 61
29 36 33 33 31 39 41 40 43 42 41 41 40 42 43 44 43 41 41 45 48 53 57 59 60 61 61 55 55 54 54 54 55 56 55 56 57 58 59 58 60 59 60 60
35 39 34 36 37 39 41 42 40 42 42 42 42 43 45 44 45 45 46 48 50 54 57 60 61 59 59 56 55 55 55 56 55 56 57 57 59 59 59 59 60 59 60 60
35 40 39 38 38 40 41 39 41 43 43 41 43 45 43 44 43 45 46 49 52 55 59 60 61 61 56 55 55 56 56 56 56 56 57 58 59 58 56 53 55 59 56 58
41 40 36 33 39 39 37 40 43 42 41 43 44 44 45 45 46 48 49 52 54 56 60 59 61 58 56 55 56 56 56 56 56 56 56 58 59 58 57 56 54 42 43 42

GFSCGP_sfc_dewp_048.txt.gz
Dewpoint
18 13 14 17 20 20 20 17 14 14 16 16 15 15 15 16 17 17 19 19 22 25 26 32 37 39 45 51 52 53 53 57 65 66 67 67 66 66 67 67 67 68 68 67
16 13 16 16 14 13 11 11 11 13 15 13 14 14 15 16 16 16 17 20 22 24 26 26 32 38 40 44 52 51 56 61 67 66 66 65 65 65 65 67 67 67 68 68
14 15 16 14 13 13 13 12 20 20 23 21 15 13 12 15 17 17 17 20 23 27 29 30 34 38 38 39 48 58 55 61 66 66 66 62 62 62 62 62 63 65 68 69
15 15 14 13 13 23 20 27 25 23 22 19 21 15 16 14 15 16 15 16 20 24 26 30 31 34 40 45 50 57 58 57 63 63 61 60 58 57 57 57 64 64 68 69
15 16 15 14 23 24 21 29 25 25 22 21 20 16 16 16 15 15 16 15 18 19 19 23 26 30 34 43 56 59 59 59 59 60 59 59 56 57 59 63 62 65 67 69
16 16 22 23 26 26 29 24 25 27 23 19 18 17 14 15 15 15 22 30 29 32 26 23 29 34 36 40 50 57 59 59 59 59 59 57 56 58 61 63 64 65 66 67
14 13 21 28 24 26 25 21 19 19 15 16 19 20 17 18 28 35 35 35 35 37 38 40 37 28 30 32 42 50 56 56 57 57 58 59 58 58 61 64 65 65 65 65
17 17 17 29 24 20 20 22 20 16 17 20 24 19 20 34 35 35 34 34 33 37 40 42 44 41 29 32 34 42 48 54 56 56 55 59 59 60 63 66 67 66 66 66
22 22 24 22 22 24 22 24 27 23 29 27 23 21 21 32 32 32 31 32 33 33 39 41 44 44 45 32 32 37 40 46 50 56 57 59 61 64 65 66 67 66 65 66
26 23 23 25 25 23 22 24 21 25 20 19 19 18 18 31 31 32 30 31 33 34 36 40 43 43 47 50 39 35 39 41 50 56 60 63 63 67 67 67 66 66 65 66
32 28 25 26 24 21 22 25 31 30 30 22 20 18 33 34 32 32 33 32 34 37 38 41 42 43 45 50 53 41 41 46 58 61 62 65 66 66 66 66 66 65 65 66
35 31 27 26 27 28 27 28 31 26 27 31 29 23 25 33 33 34 33 34 37 38 41 43 43 44 47 48 52 55 52 57 61 63 64 65 67 66 66 66 66 66 66 67
34 28 26 21 23 28 28 28 31 30 29 26 23 20 30 36 37 34 35 38 39 39 42 41 42 40 43 50 53 59 60 62 64 65 66 67 68 67 66 66 67 67 67 66
36 33 28 24 25 29 28 29 30 28 25 24 23 23 25 27 31 34 36 37 35 35 38 41 41 40 41 47 55 62 63 64 66 67 66 66 67 67 67 67 67 66 66 65
37 33 32 32 32 31 31 31 30 27 24 24 23 22 25 30 32 33 36 29 34 34 31 33 37 37 38 45 57 61 65 66 66 66 66 65 65 65 65 65 65 64 63 61
39 33 35 33 31 28 28 29 28 26 25 28 28 28 28 30 34 31 32 28 29 30 33 30 31 39 51 51 60 60 64 65 65 65 64 65 64 64 63 63 61 59 58 59
34 34 31 26 28 29 25 28 30 32 30 31 28 28 32 36 36 36 37 39 43 45 46 48 52 57 58 61 58 56 62 65 64 64 64 64 63 62 61 59 58 58 58 59
35 31 33 28 27 21 30 35 34 32 30 32 33 36 35 35 36 36 36 43 41 41 43 48 54 57 57 58 58 57 62 64 63 63 62 62 61 60 57 58 58 58 59 60
35 33 30 27 24 26 30 35 36 35 32 34 36 35 36 36 36 34 39 39 40 41 42 48 56 58 58 57 58 58 60 63 62 61 61 60 59 57 57 58 58 59 61 62
37 37 33 30 24 17 31 37 37 37 29 38 36 35 35 35 31 34 37 40 41 41 43 50 55 59 58 57 58 57 61 59 58 58 57 56 57 57 57 59 58 60 60 60
34 35 31 30 27 29 36 39 39 26 28 39 37 38 36 37 38 39 41 42 43 42 46 53 58 59 58 60 61 60 57 56 56 56 55 56 58 58 59 59 59 60 60 60
26 29 28 32 28 21 38 37 31 36 39 38 38 39 38 39 41 42 44 44 43 44 49 53 57 58 59 59 60 56 55 55 56 56 56 57 57 58 58 59 60 60 60 58
26 34 32 33 30 39 39 36 40 41 40 40 41 41 40 41 42 44 44 44 46 49 51 55 58 59 58 58 60 54 55 56 56 56 57 57 58 58 59 59 59 60 59 59
33 37 34 35 38 38 39 41 42 40 40 42 42 41 42 43 44 44 44 44 47 48 51 56 58 56 56 60 58 54 55 56 55 56 57 57 58 58 58 59 60 60 59 58
32 37 36 35 38 39 40 40 39 40 41 42 40 42 43 44 44 44 44 46 48 50 53 57 59 59 59 59 56 56 56 55 55 55 57 57 57 57 55 51 53 58 57 58
39 39 37 36 41 38 38 37 39 40 42 41 42 43 43 44 44 45 46 49 51 53 56 58 59 60 59 59 56 56 56 56 56 57 58 57 57 56 55 53 50 41 43 46